CW9988 Weather Reports


time (UTC)temp
C
wind
direction
speed
KPH
gust
KPH
rain 1hr
cm
rain 24hr
cm
rain mn
cm
humidity
%
barometer
mb
20260503021541 6 0 0.0 9.7 0.00 0.03 0.00 88 1011.8
20260503020037 6 0 0.0 17.7 0.00 0.03 0.00 88 1011.8
20260503014542 7 0 0.0 12.9 0.00 0.03 0.00 89 1011.9
20260503013041 7 275 1.6 12.9 0.00 0.03 0.00 89 1011.9
20260503011539 7 0 0.0 14.5 0.00 0.03 0.00 89 1011.7
20260503010048 7 0 4.8 17.7 0.00 0.03 0.00 90 1011.7
20260503004537 7 0 0.0 16.1 0.00 0.03 0.00 90 1011.9
20260503003043 7 0 1.6 16.1 0.00 0.03 0.00 90 1011.9
20260503001542 7 268 1.6 14.5 0.00 0.03 0.00 90 1011.9
20260503000041 7 0 0.0 9.7 0.00 0.03 0.00 90 1012.1
20260502234556 7 0 1.6 12.9 0.00 0.03 0.00 90 1012.0
20260502233039 7 270 1.6 11.3 0.00 0.03 0.00 90 1012.0
20260502231538 7 0 0.0 19.3 0.00 0.03 0.00 90 1012.1
20260502230044 7 0 1.6 11.3 0.00 0.03 0.00 89 1012.1
20260502224539 7 0 0.0 16.1 0.00 0.03 0.00 89 1012.1
20260502223040 7 257 0.0 0.0 0.00 0.03 0.00 89 1012.1
20260502221541 7 0 0.0 4.8 0.00 0.03 0.00 89 1012.1
20260502220038 7 0 0.0 6.4 0.00 0.03 0.00 89 1011.9
20260502214542 7 0 0.0 0.0 0.00 0.03 0.03 88 1011.9
20260502213042 7 0 0.0 1.6 0.00 0.03 0.03 87 1011.9
20260502211542 8 0 0.0 11.3 0.00 0.03 0.03 85 1012.0
20260502210040 8 0 1.6 14.5 0.00 0.03 0.03 85 1012.1
20260502204538 8 282 3.2 19.3 0.00 0.03 0.03 83 1012.0
20260502203036 9 0 1.6 14.5 0.00 0.03 0.03 83 1012.0
20260502201542 9 277 1.6 12.9 0.00 0.03 0.03 83 1011.9
20260502200042 10 0 0.0 4.8 0.00 0.03 0.03 81 1011.8
20260502194541 10 0 0.0 6.4 0.00 0.03 0.03 80 1011.7
20260502193044 10 299 0.0 11.3 0.00 0.03 0.03 79 1011.4
20260502191544 10 0 0.0 3.2 0.00 0.03 0.03 77 1011.4
20260502190037 10 0 0.0 8.0 0.00 0.03 0.03 78 1011.3
20260502184554 11 0 0.0 4.8 0.00 0.03 0.03 78 1011.4
20260502183040 11 0 0.0 0.0 0.00 0.03 0.03 76 1011.3
20260502181540 11 0 0.0 11.3 0.00 0.03 0.03 73 1011.2
20260502163043 11 0 0.0 0.0 0.00 0.03 0.03 72 1011.2
20260502161541 11 0 0.0 8.0 0.00 0.03 0.03 72 1011.3
20260502151538 12 0 0.0 4.8 0.00 0.03 0.03 70 1011.6
20260502123048 12 0 1.6 11.3 0.00 0.03 0.03 76 1012.8
20260502121544 11 0 0.0 0.0 0.00 0.03 0.03 81 1012.7
20260502114539 11 0 0.0 0.0 0.00 0.03 0.03 82 1013.0
20260502113039 10 0 0.0 4.8 0.00 0.03 0.03 83 1012.9
20260502111554 10 0 0.0 0.0 0.00 0.03 0.03 88 1012.7
20260502110040 10 0 0.0 0.0 0.00 0.03 0.03 87 1012.6
20260502104540 10 0 0.0 0.0 0.00 0.03 0.03 89 1012.5
20260502103052 10 0 0.0 0.0 0.03 0.03 0.03 87 1012.8
20260502101538 10 0 0.0 0.0 0.03 0.03 0.03 81 1013.3
20260502070040 11 0 0.0 0.0 0.00 0.00 0.00 59 1013.6
20260502064539 11 0 0.0 0.0 0.00 0.00 0.00 58 1013.6
20260502063039 11 0 0.0 9.7 0.00 0.00 0.00 58 1013.7
20260502061543 11 0 0.0 3.2 0.00 0.00 0.00 59 1013.6
20260502060040 11 0 0.0 8.0 0.00 0.00 0.00 58 1013.6
20260502054543 10 0 0.0 9.7 0.00 0.00 0.00 58 1013.7
20260502053039 10 0 0.0 1.6 0.00 0.00 0.00 58 1013.7
20260502051539 10 0 0.0 8.0 0.00 0.00 0.00 59 1013.9
20260502050042 9 0 0.0 0.0 0.00 0.00 0.00 60 1014.0
20260502044541 8 0 0.0 9.7 0.00 0.00 0.00 61 1014.3
20260502043040 7 0 0.0 1.6 0.00 0.00 0.00 65 1014.4
20260502041540 7 0 0.0 4.8 0.00 0.00 0.00 67 1014.7
20260502040039 7 0 0.0 0.0 0.00 0.00 0.00 67 1014.7
20260502034542 7 0 0.0 3.2 0.00 0.00 0.00 66 1014.8
20260502033046 7 0 0.0 3.2 0.00 0.00 0.00 68 1015.1
20260502031539 7 0 0.0 0.0 0.00 0.00 0.00 67 1015.1
20260502030040 7 0 0.0 1.6 0.00 0.00 0.00 66 1015.1
20260502024537 8 0 0.0 6.4 0.00 0.00 0.00 63 1015.6
20260502023047 8 0 0.0 6.4 0.00 0.00 0.00 63 1015.6